QPF
0.00 0.00 0.00 0.00 0.00 0.00 0.00 0.00 0.00 0.00 0.00 0.01 0.01 0.01 0.01 0.01 0.01 0.02 0.01 0.01 0.02 0.02 0.02 0.01 0.01 0.01 0.01 0.00 0.00 0.00 0.00 0.00 0.01 0.00 0.00 0.02 0.03 0.05 0.08 0.11 0.16 0.19 0.12
0.00 0.00 0.00 0.00 0.00 0.00 0.00 0.00 0.00 0.00 0.00 0.00 0.01 0.01 0.01 0.01 0.01 0.01 0.01 0.01 0.02 0.02 0.02 0.03 0.03 0.03 0.03 0.02 0.01 0.01 0.00 0.01 0.01 0.01 0.00 0.01 0.02 0.02 0.04 0.07 0.11 0.13 0.17
0.00 0.00 0.00 0.00 0.00 0.00 0.00 0.00 0.00 0.00 0.00 0.00 0.01 0.01 0.01 0.01 0.01 0.01 0.02 0.02 0.02 0.03 0.03 0.04 0.04 0.04 0.04 0.03 0.03 0.02 0.01 0.01 0.01 0.01 0.00 0.01 0.01 0.01 0.03 0.04 0.07 0.12 0.14
0.00 0.00 0.00 0.00 0.00 0.00 0.00 0.00 0.00 0.00 0.00 0.00 0.01 0.01 0.01 0.01 0.01 0.01 0.02 0.03 0.03 0.03 0.04 0.04 0.04 0.04 0.05 0.05 0.04 0.03 0.02 0.02 0.02 0.01 0.01 0.01 0.01 0.01 0.03 0.04 0.07 0.11 0.13
0.00 0.00 0.00 0.00 0.00 0.00 0.00 0.00 0.00 0.00 0.00 0.00 0.00 0.01 0.01 0.01 0.01 0.01 0.01 0.01 0.02 0.02 0.03 0.03 0.03 0.03 0.03 0.03 0.02 0.03 0.03 0.04 0.02 0.02 0.01 0.01 0.01 0.02 0.03 0.04 0.06 0.11 0.15
0.00 0.00 0.00 0.00 0.00 0.00 0.00 0.00 0.00 0.00 0.00 0.00 0.00 0.01 0.01 0.01 0.00 0.00 0.00 0.00 0.00 0.01 0.02 0.02 0.03 0.02 0.01 0.00 0.00 0.00 0.01 0.01 0.02 0.02 0.02 0.02 0.03 0.02 0.04 0.05 0.06 0.09 0.11
0.00 0.00 0.00 0.00 0.00 0.00 0.00 0.00 0.00 0.00 0.00 0.00 0.01 0.01 0.01 0.02 0.00 0.00 0.00 0.00 0.00 0.00 0.01 0.02 0.02 0.01 0.02 0.04 0.04 0.01 0.01 0.00 0.00 0.00 0.01 0.01 0.02 0.04 0.06 0.06 0.08 0.10 0.12
0.00 0.00 0.00 0.00 0.00 0.00 0.00 0.00 0.00 0.00 0.00 0.00 0.00 0.01 0.01 0.02 0.00 0.00 0.00 0.00 0.00 0.00 0.01 0.02 0.04 0.04 0.04 0.06 0.07 0.07 0.06 0.04 0.02 0.01 0.00 0.00 0.00 0.02 0.05 0.05 0.07 0.09 0.12
0.00 0.00 0.00 0.00 0.00 0.00 0.00 0.00 0.00 0.00 0.00 0.00 0.00 0.01 0.02 0.02 0.01 0.00 0.00 0.00 0.00 0.01 0.02 0.04 0.05 0.07 0.06 0.02 0.02 0.04 0.05 0.05 0.02 0.01 0.00 0.00 0.00 0.00 0.01 0.01 0.03 0.06 0.08
0.00 0.00 0.00 0.00 0.00 0.00 0.00 0.00 0.00 0.00 0.00 0.00 0.00 0.01 0.01 0.02 0.02 0.00 0.00 0.00 0.00 0.01 0.03 0.04 0.03 0.02 0.01 0.00 0.02 0.03 0.04 0.04 0.05 0.05 0.03 0.01 0.00 0.00 0.00 0.00 0.01 0.04 0.07
0.00 0.00 0.00 0.00 0.00 0.00 0.00 0.00 0.00 0.00 0.00 0.00 0.00 0.01 0.01 0.01 0.01 0.01 0.00 0.00 0.01 0.02 0.02 0.03 0.04 0.01 0.00 0.00 0.00 0.02 0.02 0.03 0.05 0.06 0.06 0.05 0.03 0.01 0.01 0.00 0.00 0.01 0.05
0.00 0.00 0.00 0.00 0.00 0.00 0.00 0.00 0.00 0.00 0.00 0.00 0.01 0.01 0.02 0.03 0.03 0.02 0.00 0.00 0.00 0.01 0.01 0.02 0.03 0.00 0.00 0.00 0.00 0.00 0.00 0.00 0.01 0.02 0.03 0.03 0.03 0.02 0.01 0.01 0.01 0.01 0.03
0.00 0.00 0.00 0.00 0.00 0.00 0.00 0.00 0.00 0.01 0.01 0.01 0.01 0.01 0.01 0.04 0.05 0.02 0.01 0.00 0.00 0.00 0.00 0.00 0.01 0.00 0.00 0.00 0.00 0.00 0.00 0.00 0.01 0.01 0.02 0.02 0.02 0.02 0.02 0.03 0.03 0.03 0.03
0.01 0.01 0.01 0.01 0.01 0.01 0.01 0.01 0.00 0.00 0.01 0.02 0.01 0.02 0.02 0.04 0.07 0.08 0.07 0.04 0.02 0.01 0.01 0.01 0.01 0.00 0.00 0.00 0.01 0.00 0.00 0.01 0.02 0.02 0.02 0.03 0.03 0.04 0.04 0.04 0.04 0.05 0.04
0.01 0.01 0.01 0.01 0.01 0.02 0.02 0.01 0.01 0.00 0.00 0.01 0.01 0.01 0.01 0.02 0.03 0.02 0.02 0.02 0.03 0.03 0.02 0.02 0.02 0.03 0.04 0.04 0.05 0.05 0.06 0.05 0.03 0.03 0.04 0.04 0.05 0.05 0.05 0.05 0.06 0.06 0.06
0.02 0.02 0.02 0.01 0.01 0.01 0.01 0.01 0.01 0.00 0.00 0.00 0.00 0.00 0.00 0.00 0.00 0.00 0.00 0.00 0.00 0.00 0.00 0.00 0.01 0.02 0.04 0.06 0.09 0.11 0.11 0.09 0.08 0.07 0.06 0.07 0.06 0.06 0.06 0.07 0.08 0.08 0.08
0.03 0.03 0.02 0.02 0.01 0.01 0.01 0.02 0.02 0.02 0.01 0.01 0.00 0.00 0.00 0.00 0.00 0.00 0.00 0.00 0.00 0.00 0.00 0.00 0.01 0.03 0.05 0.06 0.08 0.10 0.11 0.12 0.12 0.10 0.09 0.08 0.08 0.08 0.08 0.08 0.09 0.09 0.10
0.04 0.04 0.04 0.03 0.02 0.02 0.02 0.02 0.03 0.03 0.03 0.03 0.03 0.02 0.01 0.00 0.00 0.00 0.00 0.00 0.00 0.01 0.01 0.02 0.03 0.06 0.07 0.08 0.09 0.09 0.11 0.12 0.12 0.11 0.11 0.10 0.10 0.10 0.10 0.09 0.10 0.10 0.11
0.04 0.03 0.03 0.04 0.03 0.03 0.03 0.04 0.04 0.03 0.03 0.04 0.05 0.06 0.04 0.01 0.00 0.01 0.00 0.00 0.01 0.02 0.05 0.07 0.07 0.09 0.10 0.11 0.11 0.11 0.11 0.12 0.11 0.11 0.11 0.12 0.12 0.13 0.11 0.10 0.11 0.12 0.13
0.03 0.03 0.03 0.04 0.03 0.03 0.03 0.03 0.04 0.04 0.04 0.05 0.06 0.08 0.09 0.06 0.06 0.08 0.06 0.04 0.04 0.06 0.08 0.10 0.10 0.11 0.12 0.13 0.13 0.13 0.13 0.12 0.12 0.12 0.13 0.13 0.14 0.14 0.13 0.13 0.14 0.13 0.13
0.03 0.03 0.03 0.03 0.04 0.04 0.04 0.05 0.05 0.05 0.05 0.05 0.05 0.06 0.04 0.03 0.05 0.10 0.13 0.13 0.12 0.12 0.12 0.11 0.11 0.11 0.12 0.14 0.14 0.15 0.15 0.14 0.13 0.13 0.14 0.14 0.15 0.15 0.15 0.15 0.15 0.16 0.16
0.03 0.04 0.05 0.05 0.06 0.07 0.06 0.05 0.06 0.05 0.05 0.05 0.06 0.07 0.05 0.05 0.08 0.11 0.12 0.13 0.14 0.14 0.13 0.11 0.08 0.09 0.10 0.11 0.13 0.14 0.15 0.14 0.15 0.14 0.14 0.14 0.15 0.15 0.16 0.16 0.16 0.17 0.17
0.04 0.05 0.05 0.06 0.06 0.07 0.06 0.05 0.06 0.06 0.05 0.06 0.07 0.08 0.08 0.09 0.10 0.11 0.11 0.11 0.10 0.10 0.10 0.09 0.08 0.08 0.09 0.10 0.12 0.13 0.13 0.12 0.13 0.13 0.13 0.13 0.15 0.16 0.17 0.18 0.18 0.18 0.15
0.02 0.03 0.04 0.06 0.07 0.08 0.08 0.07 0.07 0.07 0.06 0.06 0.07 0.08 0.07 0.08 0.08 0.09 0.09 0.09 0.08 0.07 0.08 0.07 0.07 0.07 0.07 0.09 0.10 0.10 0.10 0.09 0.09 0.10 0.12 0.13 0.15 0.16 0.17 0.16 0.18 0.19 0.19
0.03 0.05 0.07 0.09 0.09 0.08 0.08 0.07 0.06 0.05 0.05 0.06 0.06 0.05 0.06 0.06 0.07 0.07 0.08 0.08 0.06 0.06 0.06 0.06 0.07 0.06 0.06 0.06 0.08 0.09 0.07 0.04 0.03 0.06 0.09 0.11 0.14 0.16 0.17 0.16 0.18 0.20 0.20
0.05 0.07 0.08 0.09 0.09 0.08 0.08 0.07 0.05 0.04 0.04 0.04 0.03 0.03 0.04 0.04 0.05 0.05 0.05 0.06 0.05 0.04 0.04 0.07 0.08 0.07 0.07 0.07 0.07 0.06 0.03 0.01 0.01 0.01 0.05 0.10 0.13 0.18 0.20 0.19 0.19 0.21 0.22
MSLP
1012.81 1013.27 1013.66 1013.94 1014.13 1014.24 1014.28 1014.31 1014.33 1014.37 1014.44 1014.53 1014.63 1014.70 1014.75 1014.76 1014.74 1014.69 1014.65 1014.61 1014.61 1014.64 1014.68 1014.73 1014.76 1014.76 1014.69 1014.57 1014.39 1014.17 1013.92 1013.66 1013.40 1013.15 1012.91 1012.69 1012.48 1012.29 1012.13 1012.02 1011.97 1012.01 1012.13
1012.66 1013.02 1013.31 1013.53 1013.66 1013.74 1013.77 1013.80 1013.83 1013.88 1013.95 1014.04 1014.13 1014.20 1014.25 1014.27 1014.27 1014.25 1014.24 1014.24 1014.26 1014.30 1014.35 1014.40 1014.42 1014.40 1014.34 1014.22 1014.07 1013.88 1013.68 1013.47 1013.26 1013.05 1012.84 1012.63 1012.42 1012.21 1012.03 1011.88 1011.81 1011.81 1011.91
1012.49 1012.76 1012.97 1013.11 1013.20 1013.25 1013.28 1013.31 1013.35 1013.41 1013.49 1013.58 1013.68 1013.75 1013.81 1013.85 1013.87 1013.89 1013.90 1013.92 1013.96 1014.00 1014.03 1014.06 1014.06 1014.02 1013.94 1013.83 1013.70 1013.55 1013.40 1013.25 1013.10 1012.94 1012.77 1012.58 1012.37 1012.16 1011.95 1011.78 1011.67 1011.63 1011.70
1012.24 1012.45 1012.61 1012.72 1012.79 1012.82 1012.85 1012.88 1012.94 1013.01 1013.10 1013.20 1013.30 1013.39 1013.46 1013.51 1013.56 1013.59 1013.61 1013.64 1013.67 1013.70 1013.71 1013.70 1013.66 1013.60 1013.51 1013.40 1013.28 1013.18 1013.08 1012.99 1012.90 1012.80 1012.68 1012.52 1012.33 1012.11 1011.89 1011.68 1011.54 1011.46 1011.49
1011.87 1012.08 1012.23 1012.34 1012.41 1012.46 1012.50 1012.55 1012.61 1012.69 1012.79 1012.89 1012.99 1013.08 1013.16 1013.22 1013.27 1013.31 1013.34 1013.36 1013.37 1013.37 1013.34 1013.29 1013.22 1013.12 1013.01 1012.91 1012.81 1012.75 1012.70 1012.67 1012.65 1012.61 1012.53 1012.41 1012.24 1012.03 1011.80 1011.57 1011.39 1011.28 1011.26
1011.36 1011.61 1011.82 1011.97 1012.08 1012.16 1012.23 1012.29 1012.37 1012.45 1012.54 1012.63 1012.72 1012.80 1012.87 1012.92 1012.96 1012.99 1013.01 1013.02 1013.00 1012.96 1012.90 1012.81 1012.70 1012.57 1012.45 1012.35 1012.28 1012.25 1012.25 1012.28 1012.32 1012.34 1012.32 1012.23 1012.09 1011.89 1011.65 1011.42 1011.21 1011.06 1010.99
1010.72 1011.06 1011.35 1011.57 1011.75 1011.88 1011.99 1012.07 1012.15 1012.22 1012.29 1012.35 1012.41 1012.47 1012.51 1012.54 1012.57 1012.58 1012.58 1012.57 1012.52 1012.45 1012.36 1012.24 1012.10 1011.96 1011.83 1011.74 1011.69 1011.69 1011.74 1011.82 1011.91 1011.97 1012.00 1011.95 1011.84 1011.66 1011.43 1011.19 1010.96 1010.79 1010.69
1010.00 1010.45 1010.84 1011.16 1011.41 1011.60 1011.73 1011.83 1011.90 1011.95 1011.98 1012.01 1012.02 1012.04 1012.05 1012.05 1012.05 1012.05 1012.03 1012.00 1011.94 1011.85 1011.74 1011.60 1011.45 1011.31 1011.18 1011.10 1011.07 1011.10 1011.18 1011.29 1011.41 1011.52 1011.57 1011.56 1011.47 1011.31 1011.10 1010.87 1010.64 1010.46 1010.34
1009.26 1009.82 1010.31 1010.71 1011.03 1011.27 1011.43 1011.53 1011.58 1011.59 1011.58 1011.56 1011.52 1011.49 1011.46 1011.44 1011.42 1011.40 1011.37 1011.34 1011.28 1011.19 1011.08 1010.95 1010.80 1010.66 1010.55 1010.48 1010.46 1010.50 1010.59 1010.72 1010.85 1010.98 1011.05 1011.06 1011.00 1010.86 1010.67 1010.45 1010.24 1010.06 1009.95
1008.59 1009.22 1009.78 1010.25 1010.61 1010.87 1011.04 1011.13 1011.15 1011.13 1011.07 1010.99 1010.91 1010.84 1010.78 1010.74 1010.71 1010.69 1010.67 1010.65 1010.60 1010.54 1010.44 1010.32 1010.20 1010.07 1009.96 1009.90 1009.88 1009.92 1010.00 1010.12 1010.26 1010.38 1010.45 1010.47 1010.42 1010.31 1010.15 1009.95 1009.76 1009.60 1009.50
1008.06 1008.71 1009.29 1009.78 1010.15 1010.41 1010.57 1010.63 1010.62 1010.55 1010.45 1010.34 1010.22 1010.13 1010.05 1010.01 1009.98 1009.98 1009.98 1009.98 1009.97 1009.93 1009.86 1009.77 1009.66 1009.55 1009.45 1009.38 1009.35 1009.37 1009.43 1009.53 1009.63 1009.73 1009.80 1009.82 1009.78 1009.68 1009.54 1009.37 1009.21 1009.08 1009.00
1007.69 1008.30 1008.85 1009.30 1009.64 1009.87 1009.99 1010.02 1009.97 1009.88 1009.75 1009.62 1009.49 1009.39 1009.33 1009.30 1009.30 1009.32 1009.35 1009.39 1009.41 1009.40 1009.36 1009.29 1009.19 1009.09 1008.98 1008.90 1008.85 1008.84 1008.86 1008.92 1008.99 1009.05 1009.10 1009.11 1009.07 1008.99 1008.87 1008.73 1008.60 1008.49 1008.44
1007.47 1007.99 1008.45 1008.82 1009.09 1009.25 1009.32 1009.31 1009.24 1009.12 1008.99 1008.86 1008.75 1008.67 1008.63 1008.64 1008.67 1008.73 1008.80 1008.86 1008.91 1008.92 1008.90 1008.84 1008.75 1008.63 1008.52 1008.41 1008.33 1008.27 1008.26 1008.27 1008.30 1008.33 1008.35 1008.35 1008.31 1008.24 1008.15 1008.04 1007.93 1007.85 1007.82
1007.36 1007.73 1008.06 1008.31 1008.47 1008.56 1008.56 1008.51 1008.41 1008.29 1008.18 1008.07 1008.00 1007.97 1007.98 1008.03 1008.10 1008.20 1008.30 1008.38 1008.44 1008.46 1008.43 1008.36 1008.25 1008.12 1007.98 1007.84 1007.72 1007.63 1007.57 1007.55 1007.54 1007.55 1007.56 1007.55 1007.52 1007.46 1007.39 1007.31 1007.22 1007.16 1007.14
1007.31 1007.50 1007.65 1007.75 1007.79 1007.78 1007.71 1007.62 1007.51 1007.40 1007.31 1007.26 1007.24 1007.27 1007.34 1007.44 1007.56 1007.68 1007.80 1007.88 1007.93 1007.93 1007.88 1007.78 1007.64 1007.47 1007.29 1007.12 1006.97 1006.85 1006.77 1006.72 1006.70 1006.70 1006.71 1006.71 1006.69 1006.66 1006.61 1006.54 1006.48 1006.44 1006.44
1007.24 1007.24 1007.21 1007.15 1007.05 1006.93 1006.79 1006.65 1006.53 1006.44 1006.40 1006.40 1006.45 1006.54 1006.67 1006.82 1006.98 1007.12 1007.24 1007.31 1007.33 1007.29 1007.19 1007.04 1006.86 1006.65 1006.44 1006.24 1006.06 1005.93 1005.84 1005.79 1005.77 1005.78 1005.80 1005.82 1005.83 1005.83 1005.80 1005.77 1005.73 1005.70 1005.71
1007.12 1006.93 1006.72 1006.50 1006.26 1006.03 1005.82 1005.65 1005.52 1005.45 1005.44 1005.50 1005.61 1005.77 1005.95 1006.15 1006.33 1006.48 1006.58 1006.62 1006.60 1006.50 1006.35 1006.15 1005.91 1005.66 1005.42 1005.20 1005.02 1004.88 1004.80 1004.77 1004.78 1004.81 1004.86 1004.92 1004.96 1004.98 1004.99 1004.98 1004.96 1004.95 1004.97
1006.94 1006.59 1006.22 1005.85 1005.49 1005.15 1004.87 1004.65 1004.51 1004.45 1004.47 1004.57 1004.74 1004.95 1005.18 1005.41 1005.60 1005.75 1005.83 1005.83 1005.76 1005.61 1005.39 1005.13 1004.85 1004.56 1004.29 1004.07 1003.89 1003.77 1003.71 1003.71 1003.76 1003.83 1003.92 1004.00 1004.08 1004.13 1004.17 1004.18 1004.19 1004.20 1004.24
1006.74 1006.25 1005.75 1005.25 1004.78 1004.36 1004.00 1003.74 1003.57 1003.51 1003.55 1003.68 1003.88 1004.13 1004.39 1004.63 1004.83 1004.96 1005.02 1004.98 1004.86 1004.65 1004.39 1004.08 1003.75 1003.44 1003.16 1002.93 1002.77 1002.67 1002.64 1002.68 1002.76 1002.86 1002.99 1003.10 1003.20 1003.28 1003.33 1003.36 1003.39 1003.43 1003.49
1006.54 1005.97 1005.37 1004.78 1004.22 1003.72 1003.30 1002.98 1002.79 1002.71 1002.75 1002.88 1003.10 1003.36 1003.63 1003.87 1004.07 1004.19 1004.21 1004.14 1003.97 1003.72 1003.41 1003.07 1002.72 1002.39 1002.10 1001.87 1001.72 1001.65 1001.65 1001.71 1001.82 1001.95 1002.08 1002.22 1002.33 1002.41 1002.47 1002.52 1002.56 1002.62 1002.72
1006.42 1005.80 1005.15 1004.49 1003.87 1003.31 1002.83 1002.47 1002.23 1002.12 1002.14 1002.26 1002.47 1002.72 1002.98 1003.21 1003.39 1003.49 1003.49 1003.38 1003.18 1002.90 1002.56 1002.18 1001.81 1001.47 1001.18 1000.96 1000.82 1000.76 1000.77 1000.84 1000.95 1001.09 1001.23 1001.35 1001.45 1001.53 1001.59 1001.64 1001.69 1001.77 1001.91
1006.40 1005.77 1005.11 1004.43 1003.76 1003.16 1002.64 1002.23 1001.95 1001.80 1001.78 1001.87 1002.05 1002.27 1002.50 1002.71 1002.86 1002.93 1002.90 1002.76 1002.53 1002.22 1001.85 1001.46 1001.07 1000.72 1000.42 1000.20 1000.06 1000.00 1000.01 1000.07 1000.17 1000.29 1000.40 1000.50 1000.58 1000.63 1000.67 1000.71 1000.77 1000.87 1001.03
1006.51 1005.92 1005.26 1004.59 1003.92 1003.29 1002.74 1002.30 1001.97 1001.78 1001.71 1001.75 1001.88 1002.05 1002.24 1002.41 1002.52 1002.55 1002.48 1002.31 1002.05 1001.71 1001.32 1000.90 1000.50 1000.13 999.82 999.59 999.43 999.36 999.35 999.39 999.46 999.54 999.61 999.67 999.70 999.72 999.73 999.75 999.81 999.92 1000.12
1006.75 1006.20 1005.59 1004.94 1004.28 1003.65 1003.09 1002.62 1002.25 1002.01 1001.89 1001.88 1001.94 1002.06 1002.19 1002.30 1002.36 1002.34 1002.22 1002.01 1001.71 1001.33 1000.92 1000.48 1000.05 999.66 999.33 999.08 998.90 998.80 998.76 998.76 998.79 998.83 998.85 998.86 998.85 998.83 998.80 998.81 998.85 998.98 999.20
1007.08 1006.60 1006.04 1005.42 1004.79 1004.18 1003.61 1003.12 1002.73 1002.45 1002.27 1002.20 1002.20 1002.26 1002.32 1002.36 1002.35 1002.27 1002.09 1001.83 1001.48 1001.06 1000.61 1000.14 999.68 999.26 998.91 998.63 998.43 998.30 998.23 998.19 998.18 998.17 998.15 998.11 998.06 997.99 997.94 997.92 997.96 998.09 998.32
1007.48 1007.05 1006.54 1005.97 1005.37 1004.77 1004.21 1003.71 1003.30 1002.99 1002.78 1002.65 1002.59 1002.57 1002.56 1002.53 1002.45 1002.29 1002.05 1001.72 1001.32 1000.86 1000.36 999.85 999.36 998.92 998.54 998.24 998.01 997.86 997.75 997.69 997.64 997.60 997.54 997.47 997.38 997.28 997.21 997.17 997.20 997.31 997.55
Thickness
5726 5722 5717 5713 5709 5705 5700 5695 5691 5687 5683 5678 5674 5670 5666 5662 5658 5654 5649 5646 5642 5639 5636 5634 5632 5631 5629 5629 5630 5631 5632 5634 5633 5640 5647 5654 5659 5664 5668 5672 5676 5680 5683
5726 5721 5716 5711 5706 5702 5698 5695 5691 5686 5681 5677 5672 5667 5662 5658 5654 5648 5643 5639 5634 5630 5627 5624 5622 5621 5619 5618 5617 5618 5620 5622 5623 5625 5632 5638 5645 5652 5658 5663 5668 5672 5676
5726 5720 5714 5709 5705 5700 5696 5692 5688 5683 5678 5673 5668 5663 5658 5653 5648 5643 5637 5632 5627 5622 5618 5615 5612 5610 5609 5608 5607 5607 5609 5612 5615 5617 5621 5628 5634 5642 5647 5653 5659 5664 5669
5726 5719 5713 5708 5703 5699 5695 5690 5685 5680 5675 5669 5664 5658 5653 5647 5642 5636 5631 5625 5620 5615 5611 5607 5605 5603 5601 5599 5598 5598 5599 5600 5603 5606 5610 5615 5622 5630 5636 5640 5646 5653 5659
5723 5716 5711 5707 5702 5697 5692 5687 5682 5677 5672 5667 5660 5654 5648 5642 5637 5631 5624 5619 5613 5608 5604 5601 5599 5597 5596 5594 5593 5592 5591 5591 5592 5595 5599 5605 5611 5616 5623 5631 5636 5643 5650
5719 5714 5710 5704 5699 5693 5689 5684 5678 5673 5667 5661 5655 5648 5642 5636 5629 5621 5615 5609 5604 5600 5596 5594 5592 5591 5591 5589 5588 5586 5584 5583 5583 5584 5588 5593 5599 5604 5611 5618 5624 5630 5636
5716 5711 5706 5701 5694 5689 5685 5679 5673 5667 5661 5655 5649 5643 5636 5630 5622 5614 5607 5601 5597 5593 5590 5587 5586 5588 5587 5586 5584 5581 5579 5578 5577 5576 5578 5582 5587 5593 5598 5603 5610 5616 5624
5714 5709 5703 5698 5691 5686 5679 5672 5666 5661 5654 5648 5642 5636 5630 5624 5616 5609 5601 5595 5591 5588 5585 5582 5580 5580 5579 5578 5577 5576 5575 5575 5574 5572 5574 5576 5580 5583 5588 5593 5598 5606 5617
5712 5706 5700 5694 5687 5679 5671 5665 5659 5653 5647 5642 5636 5630 5624 5618 5610 5603 5595 5591 5587 5585 5583 5581 5579 5577 5575 5573 5570 5569 5569 5569 5570 5571 5572 5574 5575 5577 5579 5582 5587 5593 5603
5709 5703 5698 5691 5682 5674 5666 5659 5652 5646 5640 5634 5630 5625 5619 5613 5606 5598 5590 5587 5584 5581 5580 5578 5576 5574 5572 5568 5565 5564 5563 5563 5563 5565 5566 5567 5569 5571 5573 5576 5580 5584 5593
5706 5699 5692 5685 5676 5669 5661 5654 5646 5639 5633 5628 5623 5618 5613 5608 5602 5595 5587 5583 5580 5577 5576 5574 5573 5571 5567 5563 5560 5558 5557 5555 5555 5555 5557 5560 5563 5566 5570 5574 5577 5580 5586
5700 5693 5686 5678 5671 5665 5656 5648 5641 5634 5627 5622 5617 5613 5610 5606 5600 5594 5586 5579 5576 5572 5570 5568 5566 5562 5559 5555 5552 5551 5549 5546 5547 5548 5550 5553 5557 5561 5566 5570 5575 5580 5585
5690 5683 5676 5670 5663 5656 5648 5641 5634 5628 5622 5618 5614 5610 5607 5603 5598 5591 5584 5577 5571 5566 5565 5563 5558 5553 5550 5548 5546 5544 5542 5541 5541 5543 5545 5548 5552 5556 5561 5565 5570 5575 5580
5679 5673 5667 5660 5654 5648 5642 5636 5629 5623 5618 5614 5609 5604 5600 5596 5591 5586 5579 5572 5565 5560 5558 5557 5553 5550 5546 5545 5545 5543 5540 5539 5540 5540 5542 5544 5546 5550 5554 5559 5562 5567 5573
5666 5661 5656 5651 5647 5641 5636 5631 5627 5622 5616 5609 5604 5598 5592 5588 5583 5574 5569 5567 5563 5559 5552 5551 5550 5549 5548 5548 5546 5545 5544 5542 5539 5538 5538 5539 5541 5544 5548 5552 5556 5561 5565
5651 5648 5645 5642 5638 5635 5631 5628 5625 5618 5613 5606 5599 5593 5589 5583 5576 5569 5563 5558 5552 5546 5542 5546 5547 5546 5547 5547 5546 5546 5545 5543 5541 5539 5537 5536 5538 5540 5542 5546 5550 5554 5559
5637 5635 5633 5631 5629 5626 5622 5618 5614 5611 5605 5599 5592 5586 5579 5576 5571 5564 5558 5552 5546 5540 5539 5544 5545 5545 5545 5546 5545 5545 5544 5543 5541 5538 5536 5535 5535 5536 5537 5539 5543 5547 5552
5623 5622 5620 5618 5617 5615 5613 5609 5605 5601 5597 5594 5588 5580 5575 5570 5565 5560 5553 5546 5547 5543 5544 5545 5546 5546 5545 5545 5544 5543 5543 5542 5540 5538 5535 5534 5533 5532 5533 5534 5537 5541 5546
5608 5608 5608 5607 5605 5604 5603 5600 5596 5593 5590 5587 5584 5579 5572 5566 5561 5555 5548 5545 5550 5552 5552 5550 5548 5547 5546 5545 5543 5542 5541 5540 5539 5537 5535 5533 5530 5529 5529 5531 5533 5535 5539
5594 5594 5593 5593 5593 5593 5592 5589 5587 5583 5580 5577 5574 5572 5569 5564 5562 5559 5552 5550 5550 5551 5550 5549 5548 5547 5545 5544 5542 5541 5540 5539 5538 5536 5534 5532 5529 5528 5527 5527 5529 5532 5537
5576 5577 5576 5577 5579 5579 5578 5576 5574 5573 5570 5568 5566 5565 5562 5559 5559 5558 5556 5553 5551 5549 5548 5547 5546 5545 5544 5543 5541 5540 5540 5539 5538 5536 5534 5532 5530 5528 5526 5526 5527 5530 5534
5556 5557 5559 5560 5561 5562 5563 5563 5563 5561 5560 5558 5558 5559 5555 5553 5554 5553 5552 5550 5549 5547 5545 5543 5542 5542 5541 5540 5540 5539 5538 5538 5537 5535 5533 5532 5529 5528 5527 5526 5527 5530 5533
5537 5538 5540 5542 5543 5544 5546 5548 5549 5549 5550 5549 5549 5550 5549 5547 5546 5546 5545 5544 5543 5542 5541 5539 5537 5537 5538 5537 5537 5537 5536 5536 5535 5534 5532 5531 5530 5529 5529 5528 5529 5531 5534
5518 5519 5520 5523 5526 5529 5531 5533 5536 5538 5539 5539 5540 5541 5540 5539 5538 5539 5538 5537 5536 5535 5535 5534 5533 5533 5534 5534 5534 5535 5535 5534 5533 5532 5532 5531 5531 5530 5530 5531 5532 5534 5537
5499 5498 5500 5503 5507 5512 5516 5519 5522 5525 5528 5529 5531 5532 5531 5530 5530 5530 5530 5529 5529 5529 5530 5530 5529 5529 5530 5531 5531 5531 5530 5529 5528 5528 5529 5530 5531 5532 5532 5533 5535 5537 5540
5481 5480 5481 5484 5488 5493 5498 5504 5509 5513 5516 5518 5519 5520 5520 5521 5522 5521 5522 5522 5522 5524 5524 5526 5526 5526 5526 5527 5527 5526 5525 5524 5524 5524 5525 5528 5530 5532 5534 5535 5538 5541 5544